Tracking 31027 objects as of 19-Jul-2025
HD Live streaming from Space Station
objects crossing your sky now

CZ-3C DEB

Track CZ-3C DEB now!


NORAD ID: 39340
Int'l Code: 2010-057E
Perigee: 495.0 km
Apogee: 35,200.4 km
Inclination: 19.5 °
Period: 625.2 minutes
Semi major axis: 24218 km
RCS: 0.3142 m2 (medium)
Launch date: October 31, 2010
Source: People's Republic of China (PRC)
Launch site: Xichang Space Center, China (XSC)

Note: This is SATELLITE DEBRIS
Your satellite tracking list
CREW DRAGON DEMO-2 DEB
Track 1 satellite(s)




NASA's NSSDC Master Catalog

Two Line Element Set (TLE):
1 39340U 10057E   25195.89288525  .00000141  00000-0  14194-2 0  9998
2 39340  19.5229  97.8401 7164987 187.3287 149.4750  2.30343544 97538
Source of the keplerian elements: AFSPC